Wind_Speed
31 37 45 52 51 39 23 22 22 7 4 9 17 18 20 24 24 27 34 40 54 37 64 82 75 71 70 66 63 56 52 47 44 38 34 28 25 24 26 23 24 24 24 21 19
31 37 41 40 47 43 27 20 20 11 2 9 16 16 17 21 24 32 35 39 39 36 55 76 71 70 68 66 62 56 51 47 43 37 31 27 25 25 24 26 28 26 26 22 18
39 39 41 38 42 41 30 19 16 12 2 12 18 14 14 16 24 28 35 37 46 34 55 71 67 66 64 64 60 55 50 46 41 34 30 29 28 27 29 30 29 29 25 21 19
44 40 42 37 37 37 33 24 15 7 4 15 16 15 13 16 26 27 30 29 25 31 60 64 65 63 62 61 57 53 49 45 39 35 32 31 33 32 33 30 29 27 24 22 18
46 45 40 40 37 39 36 26 21 5 5 12 16 16 14 18 25 26 28 33 28 32 56 59 61 60 60 58 55 50 47 44 40 37 34 34 35 32 32 29 28 27 24 20 18
47 45 40 39 36 41 42 31 20 8 5 4 15 16 14 19 24 28 28 16 17 38 53 58 59 59 57 55 52 49 47 43 40 38 37 39 38 35 33 31 29 26 24 23 22
47 47 39 41 37 39 44 37 27 18 9 9 8 20 20 18 24 32 28 24 23 47 52 57 57 58 57 53 50 49 46 42 41 40 39 40 39 34 34 32 29 27 25 23 21
48 44 39 43 39 39 43 39 33 27 19 14 15 14 22 20 26 26 25 25 30 50 54 56 57 56 53 52 50 48 45 42 40 39 38 39 37 34 32 30 28 26 25 26 26
49 43 38 39 39 38 40 43 37 34 23 19 20 16 16 24 28 30 27 24 42 50 50 54 56 52 50 50 49 46 43 40 38 39 39 38 37 34 32 29 27 27 27 25 26
48 44 41 40 38 35 38 39 36 37 26 20 24 20 23 28 26 29 22 29 41 47 47 51 52 48 46 47 47 41 37 35 37 37 37 36 35 33 32 29 27 26 27 27 26
44 43 40 39 37 33 35 34 33 38 26 26 27 33 22 25 34 30 27 31 43 43 45 47 45 43 43 44 40 34 31 30 31 32 34 32 32 30 30 27 27 29 29 27 27
41 44 40 39 39 34 31 25 29 34 30 29 29 27 21 19 22 21 25 34 41 40 42 40 37 38 39 39 35 31 29 29 28 27 28 26 24 27 27 25 27 27 26 27 27
37 40 41 38 36 36 27 24 27 32 33 26 29 28 30 33 29 28 33 35 38 41 37 32 31 31 33 32 30 26 25 25 25 24 24 23 22 24 24 23 23 24 26 27 29
32 36 39 36 36 32 28 23 25 27 36 29 28 30 30 29 28 32 32 34 36 38 34 29 26 26 27 26 24 22 21 21 21 21 21 21 22 22 22 23 25 27 28 30 32
29 32 35 36 33 30 28 25 24 24 29 31 27 25 30 31 34 35 36 36 39 33 30 25 22 22 21 20 19 17 17 17 17 17 18 19 21 20 22 23 26 28 30 32 33
28 28 30 32 33 29 27 26 26 23 25 27 26 28 30 28 30 33 31 30 36 32 27 24 19 18 17 14 13 13 12 12 14 15 16 17 20 21 24 26 28 31 32 34 35
29 25 25 29 31 31 26 24 23 23 26 24 23 24 23 23 24 28 31 31 32 27 23 20 18 17 15 14 13 12 12 14 17 19 20 21 24 25 26 29 31 32 34 37 39
26 26 23 24 27 29 30 24 24 24 22 23 21 20 20 18 17 20 23 27 27 26 25 23 21 18 16 15 16 17 16 18 20 21 23 26 29 30 30 32 33 36 38 40 42
23 23 25 21 21 24 27 27 24 24 21 19 18 17 17 18 16 13 12 17 23 25 23 22 21 21 20 19 18 20 22 23 25 27 30 31 32 33 33 35 37 38 38 38 38
22 23 23 23 19 18 21 22 25 25 21 19 17 16 15 13 13 12 8 8 12 17 20 21 22 23 23 23 24 24 25 26 28 32 34 36 35 35 35 35 36 38 39 40 41
22 22 22 23 22 19 16 16 19 21 22 21 16 14 13 12 11 11 10 10 9 9 12 15 17 19 21 23 24 26 28 30 33 35 36 36 34 35 37 40 41 43 42 42 41
19 19 21 23 23 22 19 16 14 14 15 15 16 17 14 10 7 6 7 7 9 12 15 17 19 21 23 24 26 28 29 32 34 35 37 38 37 38 40 42 43 43 41 35 31
16 17 18 21 21 21 21 20 17 13 9 8 8 9 9 9 9 8 6 7 9 11 13 16 19 22 24 26 27 30 32 35 38 40 39 41 36 35 37 35 34 29 17 17 19
15 16 17 18 18 19 18 18 17 16 14 11 6 3 1 2 2 2 1 2 3 5 9 13 16 20 22 25 28 29 32 34 37 36 31 31 24 25 26 27 27 20 20 23 27
13 13 14 14 17 17 17 18 18 17 15 13 11 9 6 3 6 7 7 7 8 9 10 11 12 14 16 18 19 21 23 26 25 24 27 20 23 26 35 34 29 29 31 35 34
14 15 16 17 16 18 21 22 18 17 19 16 15 12 9 8 8 8 9 12 14 16 17 17 18 20 22 26 27 27 29 32 32 33 33 34 30 32 40 39 35 32 30 32 32
16 17 17 19 18 17 17 18 21 24 22 23 24 22 22 17 17 15 15 14 14 16 19 19 21 24 23 29 32 26 26 34 37 37 39 37 31 38 38 37 38 37 38 39 39
Wind_Direction
3 355 345 347 2 4 357 6 4 350 327 195 180 171 181 186 198 203 191 192 200 192 202 203 200 199 199 200 202 204 209 211 215 215 216 220 220 213 210 212 197 201 202 201 206
346 342 344 352 359 6 360 352 360 353 342 191 171 172 184 184 189 180 184 191 196 214 193 199 198 196 196 199 202 202 206 210 211 210 212 211 205 208 203 200 197 199 205 205 207
1 350 349 352 1 4 5 16 5 8 74 157 166 172 182 188 177 178 180 186 180 186 190 195 195 193 194 197 199 201 203 207 207 205 204 201 202 196 195 197 198 198 201 206 212
14 8 6 2 2 9 10 21 19 27 83 160 169 171 183 178 171 170 181 186 190 186 179 188 192 190 193 196 197 199 197 201 202 201 195 197 194 190 196 201 201 203 205 210 216
18 13 9 4 8 17 17 23 25 72 72 178 185 189 184 166 164 166 166 164 175 184 174 182 189 187 191 193 195 194 194 196 198 196 191 189 188 192 194 201 205 205 209 215 222
17 16 14 9 11 22 21 29 32 60 105 135 197 194 182 162 171 171 175 183 161 178 170 178 185 186 188 191 191 192 191 193 194 193 191 189 189 195 196 198 205 209 212 221 227
17 18 21 16 15 22 27 24 34 47 75 82 112 182 174 167 160 169 164 165 169 167 169 176 184 186 186 188 188 189 189 191 192 194 195 192 193 196 201 205 209 215 220 229 239
18 22 26 22 19 22 30 30 38 51 51 72 87 124 185 173 158 145 157 166 169 167 170 176 182 186 187 185 187 189 189 189 190 195 197 195 197 203 209 211 217 223 230 237 243
17 23 26 23 23 23 32 30 36 48 58 74 78 80 112 161 154 159 155 157 158 167 168 175 181 184 186 186 187 189 191 187 190 194 196 197 202 205 211 216 222 229 237 247 255
19 20 26 26 23 25 36 32 36 41 55 74 92 99 99 139 142 140 140 152 159 164 168 173 179 182 185 189 189 188 191 189 192 195 198 200 204 208 213 219 226 233 240 247 256
19 21 24 30 28 32 39 34 37 41 63 89 107 103 105 130 152 147 142 157 163 161 168 173 178 181 185 189 190 186 189 194 198 200 204 205 209 213 221 227 234 240 247 257 266
19 22 24 28 31 33 45 37 41 49 63 77 92 105 110 134 140 141 144 157 156 157 163 171 174 179 184 189 191 188 189 196 203 207 212 213 216 224 227 233 244 253 258 264 271
21 25 25 27 32 34 45 48 48 53 65 76 80 100 110 120 135 145 144 150 147 150 155 162 168 175 183 187 189 191 194 200 207 213 220 223 228 235 241 245 253 262 268 271 275
24 24 28 29 34 37 43 52 57 59 66 82 71 89 107 109 115 124 134 144 144 139 145 151 162 169 178 182 187 190 198 207 215 222 227 234 237 249 254 258 261 266 272 278 283
26 27 28 30 36 41 48 55 65 74 72 76 76 73 97 113 119 126 133 142 133 133 141 147 151 162 172 179 186 194 203 215 225 233 239 245 253 257 264 266 271 275 277 278 279
27 30 28 32 36 44 50 59 66 81 83 78 71 77 96 104 119 124 131 139 130 135 140 146 155 162 172 179 187 200 213 228 241 247 251 258 265 262 265 269 268 270 271 272 273
28 30 33 34 36 42 49 55 70 79 93 86 80 80 87 98 122 132 135 136 138 136 147 149 156 164 177 189 201 215 230 242 247 257 268 257 257 266 259 260 264 267 271 274 277
29 34 35 38 41 42 48 52 61 76 91 97 96 88 87 92 108 128 139 142 147 152 160 168 173 194 207 205 215 222 231 238 246 252 252 251 261 260 262 264 266 271 275 279 281
32 34 37 38 44 47 50 52 62 67 83 95 107 108 102 98 95 100 125 146 155 158 163 173 178 184 190 201 217 228 230 239 246 250 253 258 261 265 270 273 275 279 279 278 279
37 39 39 40 42 52 54 51 56 67 73 79 92 105 117 125 129 127 121 137 163 172 178 184 192 196 204 212 220 230 239 245 251 257 260 264 267 271 273 274 274 274 276 278 278
35 37 44 44 45 43 50 59 59 57 61 71 81 86 97 116 127 142 164 176 197 206 205 206 211 220 225 229 237 242 249 255 258 261 264 265 266 268 271 274 274 275 277 277 278
35 37 42 42 43 41 42 44 54 69 70 61 63 77 88 105 115 139 168 186 202 210 217 226 231 235 238 243 247 249 252 254 257 261 264 268 269 275 275 275 274 275 279 282 275
28 29 29 36 38 38 41 40 39 42 49 67 77 79 72 72 91 118 165 203 218 224 239 245 245 245 247 250 254 257 260 263 266 268 271 274 278 273 272 274 277 280 275 281 274
2 22 23 24 24 21 32 38 35 34 36 32 23 23 84 117 111 84 36 132 185 209 231 239 244 253 258 261 260 260 261 262 262 266 269 272 267 272 273 271 273 275 278 263 267
333 344 357 10 11 11 9 12 19 17 14 16 18 4 352 299 259 247 235 238 248 253 259 265 267 264 261 261 261 264 268 271 271 266 263 259 262 266 272 270 273 274 273 275 275
324 333 338 331 337 346 351 352 358 0 355 351 351 354 350 328 313 302 288 265 256 251 252 253 254 260 262 264 265 264 267 270 268 268 265 265 260 263 261 272 278 276 274 274 273
298 312 321 326 329 326 332 332 337 338 340 336 335 333 335 326 317 308 298 285 274 275 273 273 270 261 256 262 267 268 266 270 270 269 268 267 265 265 268 271 269 271 272 272 269
Height
5697 5686 5675 5664 5653 5642 5629 5621 5614 5610 5609 5610 5611 5616 5621 5626 5630 5637 5646 5656 5662 5671 5682 5701 5718 5733 5748 5760 5772 5784 5795 5804 5813 5820 5826 5832 5836 5840 5844 5848 5852 5856 5859 5862 5865
5696 5684 5674 5663 5654 5644 5632 5622 5617 5611 5610 5611 5615 5618 5621 5625 5629 5636 5644 5653 5663 5671 5682 5702 5716 5730 5743 5758 5770 5780 5792 5802 5809 5816 5823 5829 5833 5837 5843 5847 5850 5854 5857 5860 5863
5693 5683 5672 5663 5654 5645 5632 5624 5618 5615 5613 5614 5617 5621 5623 5626 5631 5637 5643 5652 5662 5667 5678 5696 5714 5728 5742 5756 5768 5778 5789 5798 5807 5814 5820 5826 5830 5835 5840 5844 5848 5851 5855 5858 5861
5692 5683 5672 5664 5655 5646 5635 5626 5619 5616 5616 5617 5619 5621 5625 5629 5634 5639 5645 5653 5659 5665 5675 5694 5714 5727 5741 5754 5766 5776 5785 5795 5804 5811 5817 5823 5827 5832 5838 5843 5847 5851 5854 5857 5859
5694 5685 5675 5666 5657 5648 5639 5629 5622 5618 5617 5618 5621 5623 5627 5631 5637 5643 5649 5657 5660 5668 5681 5699 5717 5729 5741 5753 5764 5774 5784 5792 5801 5809 5815 5821 5826 5832 5836 5841 5845 5849 5852 5855 5857
5696 5687 5679 5670 5660 5651 5642 5633 5626 5621 5620 5620 5621 5624 5630 5633 5638 5645 5652 5658 5663 5671 5685 5702 5715 5727 5740 5753 5763 5772 5782 5790 5798 5805 5812 5818 5823 5829 5834 5837 5842 5846 5849 5851 5853
5699 5690 5682 5673 5664 5656 5648 5639 5631 5626 5623 5623 5623 5627 5632 5637 5641 5647 5653 5661 5666 5674 5687 5702 5716 5728 5739 5752 5761 5770 5780 5788 5795 5802 5809 5816 5820 5826 5830 5833 5838 5843 5846 5848 5850
5703 5695 5687 5678 5669 5661 5654 5647 5639 5632 5629 5627 5627 5628 5632 5640 5646 5652 5657 5664 5669 5676 5689 5700 5714 5728 5740 5751 5760 5769 5778 5786 5793 5800 5806 5814 5819 5823 5828 5832 5836 5839 5842 5844 5845
5708 5700 5691 5684 5675 5667 5659 5652 5646 5639 5635 5634 5633 5634 5636 5643 5651 5657 5662 5666 5671 5680 5692 5704 5718 5731 5743 5752 5761 5769 5778 5786 5793 5798 5803 5810 5816 5820 5825 5829 5832 5835 5837 5839 5840
5713 5704 5696 5688 5680 5674 5667 5662 5657 5649 5643 5641 5643 5643 5645 5649 5657 5662 5668 5672 5679 5688 5699 5711 5724 5736 5747 5755 5763 5772 5781 5787 5793 5798 5802 5807 5813 5818 5823 5827 5829 5832 5833 5835 5837
5719 5710 5703 5694 5688 5681 5675 5671 5668 5660 5657 5652 5651 5651 5653 5656 5661 5667 5674 5679 5687 5696 5709 5719 5730 5739 5750 5759 5765 5772 5781 5788 5793 5798 5802 5807 5812 5816 5819 5824 5825 5826 5829 5831 5832
5725 5716 5709 5701 5693 5687 5681 5681 5678 5672 5667 5663 5661 5662 5663 5665 5672 5677 5681 5688 5695 5705 5715 5726 5735 5745 5754 5761 5768 5775 5781 5787 5793 5797 5802 5806 5811 5813 5817 5820 5821 5823 5825 5826 5827
5731 5722 5715 5708 5700 5694 5690 5689 5685 5681 5677 5675 5672 5672 5673 5676 5679 5683 5690 5697 5704 5710 5721 5733 5741 5750 5757 5765 5771 5777 5783 5788 5793 5797 5801 5805 5808 5811 5814 5816 5818 5819 5820 5820 5821
5737 5729 5721 5715 5708 5702 5698 5696 5692 5690 5688 5687 5685 5683 5683 5685 5691 5693 5699 5708 5715 5719 5727 5737 5747 5754 5761 5768 5773 5778 5784 5789 5793 5797 5800 5803 5806 5807 5810 5812 5813 5814 5814 5813 5813
5741 5735 5729 5721 5716 5710 5707 5703 5701 5699 5698 5697 5695 5695 5695 5697 5700 5705 5711 5716 5721 5727 5737 5746 5752 5759 5765 5770 5776 5781 5784 5789 5793 5796 5799 5801 5804 5806 5805 5807 5808 5808 5808 5807 5806
5746 5741 5735 5730 5724 5718 5713 5711 5709 5709 5706 5706 5705 5705 5705 5707 5711 5715 5720 5724 5727 5734 5742 5749 5757 5763 5768 5773 5777 5781 5785 5788 5791 5793 5796 5797 5799 5801 5801 5801 5801 5801 5801 5801 5800
5748 5745 5741 5736 5731 5726 5721 5718 5717 5715 5715 5715 5714 5715 5716 5717 5720 5723 5727 5729 5734 5741 5748 5754 5759 5764 5769 5773 5777 5780 5783 5786 5788 5789 5792 5792 5792 5795 5795 5794 5794 5794 5793 5792 5791
5755 5749 5745 5741 5737 5733 5729 5727 5724 5720 5720 5721 5722 5723 5724 5726 5728 5730 5732 5735 5740 5745 5750 5755 5761 5765 5769 5772 5775 5777 5780 5781 5782 5784 5786 5785 5786 5788 5788 5788 5788 5787 5785 5784 5782
5758 5754 5749 5745 5743 5740 5736 5734 5730 5728 5727 5727 5727 5728 5730 5732 5735 5737 5739 5741 5744 5748 5754 5757 5760 5763 5767 5769 5772 5774 5776 5777 5778 5779 5779 5780 5781 5781 5781 5781 5780 5779 5777 5775 5773
5761 5756 5753 5750 5747 5745 5743 5740 5736 5733 5733 5734 5733 5733 5734 5736 5739 5742 5745 5747 5749 5750 5753 5757 5760 5762 5764 5766 5768 5770 5772 5773 5772 5772 5772 5773 5774 5774 5773 5773 5771 5769 5768 5765 5763
5764 5761 5757 5755 5751 5750 5747 5744 5743 5741 5739 5738 5737 5739 5739 5740 5741 5744 5746 5749 5751 5753 5755 5756 5759 5762 5763 5764 5765 5767 5767 5768 5767 5767 5765 5766 5768 5766 5765 5763 5762 5760 5758 5756 5753
5766 5764 5761 5758 5756 5753 5751 5748 5746 5744 5743 5744 5743 5741 5741 5742 5744 5746 5748 5750 5752 5753 5754 5756 5758 5759 5760 5761 5762 5762 5762 5761 5760 5761 5759 5758 5761 5758 5756 5754 5751 5749 5748 5746 5743
5768 5765 5762 5759 5758 5757 5754 5753 5751 5749 5748 5746 5745 5745 5745 5745 5746 5745 5746 5748 5749 5751 5753 5755 5756 5756 5756 5757 5756 5756 5755 5754 5753 5752 5754 5750 5754 5749 5746 5744 5742 5740 5740 5738 5736
5772 5767 5764 5762 5759 5757 5755 5753 5753 5752 5750 5749 5748 5747 5746 5745 5746 5747 5748 5748 5748 5748 5748 5749 5749 5751 5752 5752 5751 5750 5748 5746 5744 5744 5744 5744 5744 5741 5739 5736 5735 5735 5734 5732 5729
5769 5768 5765 5763 5761 5759 5757 5754 5752 5752 5751 5750 5750 5749 5748 5747 5746 5746 5745 5745 5746 5746 5746 5746 5746 5746 5745 5744 5744 5744 5743 5741 5740 5739 5736 5740 5737 5734 5729 5728 5729 5729 5727 5725 5723
5766 5766 5763 5762 5759 5758 5757 5755 5753 5751 5752 5751 5749 5748 5747 5747 5746 5745 5745 5745 5743 5742 5741 5741 5741 5740 5741 5740 5739 5739 5738 5735 5734 5734 5732 5730 5733 5728 5722 5722 5721 5719 5718 5716 5713
5763 5761 5760 5759 5758 5756 5754 5753 5750 5750 5748 5747 5746 5745 5745 5745 5744 5742 5741 5739 5739 5739 5738 5737 5735 5733 5732 5729 5726 5729 5731 5727 5725 5725 5723 5721 5725 5718 5717 5715 5711 5710 5708 5705 5702